Time,TemperatureF,DewpointF,PressureIn,WindDirection,WindDirectionDegrees,WindSpeedMPH,WindSpeedGustMPH,Humidity,HourlyPrecipIn,Conditions,Clouds,dailyrainin,SoftwareType,DateUTC
2013-02-25 00:00:00,31.3,23.6,29.88,West,265,0.0,0.0,73,0.00,,OVC060,0.24,VWS V13.01,2013-02-25 05:00:00,
2013-02-25 00:05:00,31.3,23.6,29.88,WSW,249,0.0,0.0,73,0.00,,OVC060,0.00,VWS V13.01,2013-02-25 05:05:00,
2013-02-25 00:10:00,31.3,23.3,29.88,WNW,294,0.0,0.0,72,0.00,,OVC060,0.00,VWS V13.01,2013-02-25 05:10:00,
2013-02-25 00:15:00,31.3,23.3,29.91,NW,321,0.0,0.0,72,0.00,,OVC060,0.00,VWS V13.01,2013-02-25 05:15:00,
2013-02-25 00:20:00,31.3,23.0,29.91,West,277,0.0,0.0,71,0.00,,OVC060,0.00,VWS V13.01,2013-02-25 05:20:00,
2013-02-25 00:25:00,31.3,23.0,29.91,West,272,0.0,0.0,71,0.00,,OVC060,0.00,VWS V13.01,2013-02-25 05:25:00,
2013-02-25 00:30:00,31.1,22.5,29.91,NW,315,0.0,0.0,70,0.00,,OVC060,0.00,VWS V13.01,2013-02-25 05:30:00,
2013-02-25 00:35:00,30.9,22.0,29.91,NW,316,0.0,0.0,69,0.00,,OVC060,0.00,VWS V13.01,2013-02-25 05:35:00,
2013-02-25 00:40:00,30.9,22.0,29.91,WSW,251,0.0,0.0,69,0.00,,OVC060,0.00,VWS V13.01,2013-02-25 05:40:00,
2013-02-25 00:45:00,30.7,21.8,29.91,WNW,299,0.0,0.0,69,0.00,,OVC060,0.00,VWS V13.01,2013-02-25 05:45:00,
2013-02-25 00:50:00,30.6,21.6,29.91,WNW,301,0.0,0.0,69,0.00,,OVC040,0.00,VWS V13.01,2013-02-25 05:50:00,
2013-02-25 00:55:00,30.4,21.4,29.91,NW,325,0.0,0.0,69,0.00,,OVC040,0.00,VWS V13.01,2013-02-25 05:55:00,
2013-02-25 01:00:00,30.2,21.6,29.91,NW,325,0.0,0.0,70,0.00,,OVC040,0.00,VWS V13.01,2013-02-25 06:00:00,
2013-02-25 01:05:00,30.2,21.6,29.91,NNW,328,0.0,0.0,70,0.00,,OVC040,0.00,VWS V13.01,2013-02-25 06:05:00,
2013-02-25 01:10:00,30.2,21.6,29.91,WNW,285,0.0,0.0,70,0.00,,OVC040,0.00,VWS V13.01,2013-02-25 06:10:00,
2013-02-25 01:15:00,30.2,21.6,29.91,NW,311,0.0,0.0,70,0.00,,OVC040,0.00,VWS V13.01,2013-02-25 06:15:00,
2013-02-25 01:20:00,30.0,21.4,29.91,West,272,0.0,0.0,70,0.00,,OVC040,0.00,VWS V13.01,2013-02-25 06:20:00,
2013-02-25 01:25:00,30.0,21.4,29.91,NW,305,0.0,0.0,70,0.00,,OVC040,0.00,VWS V13.01,2013-02-25 06:25:00,
2013-02-25 01:30:00,29.8,21.3,29.91,North,353,0.0,0.0,70,0.00,,OVC040,0.00,VWS V13.01,2013-02-25 06:30:00,
2013-02-25 01:35:00,29.8,21.3,29.91,West,265,0.0,0.0,70,0.00,,OVC040,0.00,VWS V13.01,2013-02-25 06:35:00,
2013-02-25 01:40:00,29.8,20.9,29.91,NW,307,0.0,0.0,69,0.00,,OVC040,0.00,VWS V13.01,2013-02-25 06:40:00,
2013-02-25 01:45:00,29.8,20.9,29.91,WSW,252,0.0,0.0,69,0.00,,OVC040,0.00,VWS V13.01,2013-02-25 06:45:00,
2013-02-25 01:50:00,29.7,21.1,29.91,West,277,0.0,0.0,70,0.00,,BKN040,0.00,VWS V13.01,2013-02-25 06:50:00,
2013-02-25 01:55:00,29.7,21.1,29.91,West,266,0.0,0.0,70,0.00,,BKN040,0.00,VWS V13.01,2013-02-25 06:55:00,
2013-02-25 02:00:00,29.7,21.1,29.91,NW,324,0.0,0.0,70,0.00,,BKN040,0.00,VWS V13.01,2013-02-25 07:00:00,
2013-02-25 02:05:00,29.5,20.6,29.91,NW,320,0.0,0.0,69,0.00,,BKN040,0.00,VWS V13.01,2013-02-25 07:05:00,
2013-02-25 02:10:00,29.5,20.6,29.91,WSW,247,0.0,0.0,69,0.00,,BKN040,0.00,VWS V13.01,2013-02-25 07:10:00,
2013-02-25 02:15:00,29.5,20.6,29.91,West,263,0.0,0.0,69,0.00,,BKN040,0.00,VWS V13.01,2013-02-25 07:15:00,
2013-02-25 02:20:00,29.5,20.6,29.91,NW,319,0.0,0.0,69,0.00,,BKN040,0.00,VWS V13.01,2013-02-25 07:20:00,
2013-02-25 02:25:00,29.5,20.6,29.91,NW,320,0.0,0.0,69,0.00,,BKN040,0.00,VWS V13.01,2013-02-25 07:25:00,
2013-02-25 02:30:00,29.5,20.6,29.91,WNW,291,0.0,0.0,69,0.00,,BKN040,0.00,VWS V13.01,2013-02-25 07:30:00,
2013-02-25 02:35:00,29.3,20.7,29.91,WSW,258,0.0,0.0,70,0.00,,BKN040,0.00,VWS V13.01,2013-02-25 07:35:00,
2013-02-25 02:40:00,29.3,20.7,29.94,WSW,257,0.0,0.0,70,0.00,,BKN040,0.00,VWS V13.01,2013-02-25 07:40:00,
2013-02-25 02:45:00,29.3,20.7,29.94,WNW,294,0.0,0.0,70,0.00,,BKN040,0.00,VWS V13.01,2013-02-25 07:45:00,
2013-02-25 02:50:00,29.3,21.1,29.94,WSW,247,0.0,0.0,71,0.00,,SCT042,0.00,VWS V13.01,2013-02-25 07:50:00,
2013-02-25 02:55:00,29.3,21.1,29.94,WNW,283,0.0,0.0,71,0.00,,SCT042,0.00,VWS V13.01,2013-02-25 07:55:00,
2013-02-25 03:00:00,29.1,20.9,29.94,West,267,0.0,0.0,71,0.00,,SCT042,0.00,VWS V13.01,2013-02-25 08:00:00,
2013-02-25 03:05:00,29.1,20.9,29.94,WNW,289,0.0,0.0,71,0.00,,SCT042,0.00,VWS V13.01,2013-02-25 08:05:00,
2013-02-25 03:10:00,29.1,20.9,29.94,West,276,0.0,0.0,71,0.00,,SCT042,0.00,VWS V13.01,2013-02-25 08:10:00,
2013-02-25 03:15:00,29.1,20.9,29.94,West,272,0.0,0.0,71,0.00,,SCT042,0.00,VWS V13.01,2013-02-25 08:15:00,
2013-02-25 03:20:00,28.9,20.7,29.94,West,262,0.0,0.0,71,0.00,,SCT042,0.00,VWS V13.01,2013-02-25 08:20:00,
2013-02-25 03:25:00,28.9,21.1,29.94,NW,324,0.0,0.0,72,0.00,,SCT042,0.00,VWS V13.01,2013-02-25 08:25:00,
2013-02-25 03:30:00,28.9,21.1,29.94,West,275,0.0,0.0,72,0.00,,SCT042,0.00,VWS V13.01,2013-02-25 08:30:00,
2013-02-25 03:35:00,28.9,21.1,29.94,WSW,249,0.0,0.0,72,0.00,,SCT042,0.00,VWS V13.01,2013-02-25 08:35:00,
2013-02-25 03:40:00,28.9,21.1,29.94,West,263,0.0,0.0,72,0.00,,SCT042,0.00,VWS V13.01,2013-02-25 08:40:00,
2013-02-25 03:45:00,28.8,20.9,29.94,West,272,0.0,0.0,72,0.00,,SCT042,0.00,VWS V13.01,2013-02-25 08:45:00,
2013-02-25 03:50:00,28.8,20.9,29.94,NW,313,0.0,0.0,72,0.00,,CLR,0.00,VWS V13.01,2013-02-25 08:50:00,
2013-02-25 03:55:00,28.8,20.9,29.94,WNW,289,0.0,0.0,72,0.00,,CLR,0.00,VWS V13.01,2013-02-25 08:55:00,
2013-02-25 04:00:00,28.8,20.9,29.94,NW,318,0.0,0.0,72,0.00,,CLR,0.00,VWS V13.01,2013-02-25 09:00:00,
2013-02-25 04:05:00,28.6,20.7,29.94,WNW,303,0.0,0.0,72,0.00,,CLR,0.00,VWS V13.01,2013-02-25 09:05:00,
2013-02-25 04:10:00,28.6,21.0,29.94,WNW,289,0.0,0.0,73,0.00,,CLR,0.00,VWS V13.01,2013-02-25 09:10:00,
2013-02-25 04:15:00,28.6,21.0,29.94,West,273,0.0,0.0,73,0.00,,CLR,0.00,VWS V13.01,2013-02-25 09:15:00,
2013-02-25 04:20:00,28.6,21.0,29.94,WNW,283,0.0,0.0,73,0.00,,CLR,0.00,VWS V13.01,2013-02-25 09:20:00,
2013-02-25 04:25:00,28.6,21.0,29.94,WSW,256,0.0,0.0,73,0.00,,CLR,0.00,VWS V13.01,2013-02-25 09:25:00,
2013-02-25 04:30:00,28.6,21.0,29.94,West,259,0.0,0.0,73,0.00,,CLR,0.00,VWS V13.01,2013-02-25 09:30:00,
2013-02-25 04:35:00,28.6,21.0,29.94,West,280,0.0,0.0,73,0.00,,CLR,0.00,VWS V13.01,2013-02-25 09:35:00,
2013-02-25 04:40:00,28.6,20.7,29.94,West,267,0.0,0.0,72,0.00,,CLR,0.00,VWS V13.01,2013-02-25 09:40:00,
2013-02-25 04:45:00,28.6,20.7,29.97,WNW,284,0.0,0.0,72,0.00,,CLR,0.00,VWS V13.01,2013-02-25 09:45:00,
2013-02-25 04:50:00,28.6,20.7,29.97,WSW,250,0.0,0.0,72,0.00,,CLR,0.00,VWS V13.01,2013-02-25 09:50:00,
2013-02-25 04:55:00,28.6,20.7,29.97,WSW,254,0.0,0.0,72,0.00,,CLR,0.00,VWS V13.01,2013-02-25 09:55:00,
2013-02-25 05:00:00,28.6,20.7,29.97,NW,314,0.0,0.0,72,0.00,,CLR,0.00,VWS V13.01,2013-02-25 10:00:00,
2013-02-25 05:05:00,28.6,20.7,29.97,WNW,286,0.0,0.0,72,0.00,,CLR,0.00,VWS V13.01,2013-02-25 10:05:00,
2013-02-25 05:10:00,28.4,20.5,29.97,WSW,258,0.0,0.0,72,0.00,,CLR,0.00,VWS V13.01,2013-02-25 10:10:00,
2013-02-25 05:15:00,28.4,20.5,29.97,NW,325,0.0,0.0,72,0.00,,CLR,0.00,VWS V13.01,2013-02-25 10:15:00,
2013-02-25 05:20:00,28.6,20.7,29.97,WNW,292,0.0,0.0,72,0.00,,CLR,0.00,VWS V13.01,2013-02-25 10:20:00,
2013-02-25 05:25:00,28.6,20.4,29.97,NW,306,0.0,0.0,71,0.00,,CLR,0.00,VWS V13.01,2013-02-25 10:25:00,
2013-02-25 05:30:00,28.6,20.4,29.97,WSW,256,0.0,0.0,71,0.00,,CLR,0.00,VWS V13.01,2013-02-25 10:30:00,
2013-02-25 05:35:00,28.4,20.2,29.97,NNW,335,0.0,0.0,71,0.00,,CLR,0.00,VWS V13.01,2013-02-25 10:35:00,
2013-02-25 05:40:00,28.4,20.2,29.97,NNW,337,0.0,0.0,71,0.00,,CLR,0.00,VWS V13.01,2013-02-25 10:40:00,
2013-02-25 05:45:00,28.4,20.2,30.00,WNW,283,0.0,0.0,71,0.00,,CLR,0.00,VWS V13.01,2013-02-25 10:45:00,
2013-02-25 05:50:00,28.4,20.2,30.00,West,266,0.0,0.0,71,0.00,,CLR,0.00,VWS V13.01,2013-02-25 10:50:00,
2013-02-25 05:55:00,28.4,19.9,30.00,WNW,287,0.0,0.0,70,0.00,,CLR,0.00,VWS V13.01,2013-02-25 10:55:00,
2013-02-25 06:00:00,28.4,20.2,30.00,NW,309,0.0,0.0,71,0.00,,CLR,0.00,VWS V13.01,2013-02-25 11:00:00,
2013-02-25 06:05:00,28.4,20.2,30.00,NW,312,0.0,0.0,71,0.00,,CLR,0.00,VWS V13.01,2013-02-25 11:05:00,
2013-02-25 06:10:00,28.4,20.2,30.00,West,265,0.0,0.0,71,0.00,,CLR,0.00,VWS V13.01,2013-02-25 11:10:00,
2013-02-25 06:15:00,28.4,20.2,30.00,West,261,0.0,0.0,71,0.00,,CLR,0.00,VWS V13.01,2013-02-25 11:15:00,
2013-02-25 06:20:00,28.2,20.0,30.00,West,259,0.0,0.0,71,0.00,,CLR,0.00,VWS V13.01,2013-02-25 11:20:00,
2013-02-25 06:25:00,28.2,20.0,30.00,West,264,0.0,0.0,71,0.00,,CLR,0.00,VWS V13.01,2013-02-25 11:25:00,
2013-02-25 06:30:00,28.0,19.9,30.00,WSW,253,0.0,0.0,71,0.00,,CLR,0.00,VWS V13.01,2013-02-25 11:30:00,
2013-02-25 06:35:00,28.0,19.9,30.00,WNW,284,0.0,0.0,71,0.00,,CLR,0.00,VWS V13.01,2013-02-25 11:35:00,
2013-02-25 06:40:00,28.0,20.2,30.00,WSW,251,0.0,0.0,72,0.00,,CLR,0.00,VWS V13.01,2013-02-25 11:40:00,
2013-02-25 06:45:00,27.9,20.0,30.00,NNW,339,0.0,0.0,72,0.00,,CLR,0.00,VWS V13.01,2013-02-25 11:45:00,
2013-02-25 06:50:00,28.0,20.2,30.00,NW,321,0.0,0.0,72,0.00,,CLR,0.00,VWS V13.01,2013-02-25 11:50:00,
2013-02-25 06:55:00,28.2,20.4,30.03,West,273,0.0,0.0,72,0.00,,CLR,0.00,VWS V13.01,2013-02-25 11:55:00,
2013-02-25 07:00:00,28.2,20.4,30.03,WNW,292,0.0,0.0,72,0.00,,CLR,0.00,VWS V13.01,2013-02-25 12:00:00,
2013-02-25 07:05:00,28.0,20.2,30.03,West,267,0.0,0.0,72,0.00,,CLR,0.00,VWS V13.01,2013-02-25 12:05:00,
2013-02-25 07:10:00,28.2,20.4,30.03,WNW,299,0.0,0.0,72,0.00,,CLR,0.00,VWS V13.01,2013-02-25 12:10:00,
2013-02-25 07:15:00,28.4,20.5,30.03,NNW,332,0.0,0.0,72,0.00,,CLR,0.00,VWS V13.01,2013-02-25 12:15:00,
2013-02-25 07:20:00,28.4,20.5,30.03,WNW,289,0.0,0.0,72,0.00,,CLR,0.00,VWS V13.01,2013-02-25 12:20:00,
2013-02-25 07:25:00,28.6,20.4,30.03,WSW,252,0.0,0.0,71,0.00,,CLR,0.00,VWS V13.01,2013-02-25 12:25:00,
2013-02-25 07:30:00,28.6,20.4,30.03,NW,305,0.0,0.0,71,0.00,,CLR,0.00,VWS V13.01,2013-02-25 12:30:00,
2013-02-25 07:35:00,28.8,20.2,30.03,NW,308,0.0,0.0,70,0.00,,CLR,0.00,VWS V13.01,2013-02-25 12:35:00,
2013-02-25 07:40:00,28.9,20.4,30.03,NNW,339,0.0,0.0,70,0.00,,CLR,0.00,VWS V13.01,2013-02-25 12:40:00,
2013-02-25 07:45:00,29.1,20.2,30.03,West,271,0.0,0.0,69,0.00,,CLR,0.00,VWS V13.01,2013-02-25 12:45:00,
2013-02-25 07:50:00,29.5,20.6,30.03,NW,319,0.0,0.0,69,0.00,,CLR,0.00,VWS V13.01,2013-02-25 12:50:00,
2013-02-25 07:55:00,29.5,20.2,30.03,NE,50,0.0,0.0,68,0.00,,CLR,0.00,VWS V13.01,2013-02-25 12:55:00,
2013-02-25 08:00:00,29.7,20.4,30.03,West,275,0.0,0.0,68,0.00,,CLR,0.00,VWS V13.01,2013-02-25 13:00:00,
2013-02-25 08:05:00,30.0,20.8,30.03,WNW,298,0.0,0.0,68,0.00,,CLR,0.00,VWS V13.01,2013-02-25 13:05:00,
2013-02-25 08:10:00,30.2,20.9,30.03,WNW,283,0.0,0.0,68,0.00,,CLR,0.00,VWS V13.01,2013-02-25 13:10:00,
2013-02-25 08:15:00,30.4,20.8,30.03,NW,312,0.0,0.0,67,0.00,,CLR,0.00,VWS V13.01,2013-02-25 13:15:00,
2013-02-25 08:20:00,30.6,20.6,30.03,WNW,293,0.0,0.0,66,0.00,,CLR,0.00,VWS V13.01,2013-02-25 13:20:00,
2013-02-25 08:25:00,30.9,20.9,30.03,North,11,0.0,0.0,66,0.00,,CLR,0.00,VWS V13.01,2013-02-25 13:25:00,
2013-02-25 08:30:00,31.1,20.7,30.03,West,261,0.0,0.0,65,0.00,,CLR,0.00,VWS V13.01,2013-02-25 13:30:00,
2013-02-25 08:35:00,31.3,20.9,30.03,West,269,0.0,0.0,65,0.00,,CLR,0.00,VWS V13.01,2013-02-25 13:35:00,
2013-02-25 08:40:00,31.5,21.1,30.03,West,278,0.0,0.0,65,0.00,,CLR,0.00,VWS V13.01,2013-02-25 13:40:00,
2013-02-25 08:45:00,31.8,21.0,30.06,West,280,0.0,0.0,64,0.00,,CLR,0.00,VWS V13.01,2013-02-25 13:45:00,
2013-02-25 08:50:00,32.0,21.2,30.06,WNW,303,0.0,0.0,64,0.00,,CLR,0.00,VWS V13.01,2013-02-25 13:50:00,
2013-02-25 08:55:00,32.2,21.4,30.06,West,278,0.0,0.0,64,0.00,,CLR,0.00,VWS V13.01,2013-02-25 13:55:00,
2013-02-25 09:00:00,32.5,21.4,30.06,West,277,5.8,5.8,63,0.00,,CLR,0.00,VWS V13.01,2013-02-25 14:00:00,
2013-02-25 09:05:00,32.7,21.1,30.06,NW,318,3.6,8.3,62,0.00,,CLR,0.00,VWS V13.01,2013-02-25 14:05:00,
2013-02-25 09:11:00,33.1,21.1,30.06,WNW,283,7.6,8.3,61,0.00,,CLR,0.00,VWS V13.01,2013-02-25 14:11:00,
2013-02-25 09:16:00,33.3,21.3,30.06,North,0,2.7,8.7,61,0.00,,CLR,0.00,VWS V13.01,2013-02-25 14:16:00,
2013-02-25 09:21:00,33.4,21.1,30.06,NNE,13,3.1,8.7,60,0.00,,CLR,0.00,VWS V13.01,2013-02-25 14:21:00,
2013-02-25 09:26:00,33.6,20.4,30.06,NNE,21,2.2,8.7,58,0.00,,CLR,0.00,VWS V13.01,2013-02-25 14:26:00,
2013-02-25 09:31:00,34.0,20.0,30.06,NE,41,2.7,2.7,56,0.00,,CLR,0.00,VWS V13.01,2013-02-25 14:31:00,
2013-02-25 09:36:00,34.3,20.3,30.06,NW,325,4.9,6.3,56,0.00,,CLR,0.00,VWS V13.01,2013-02-25 14:36:00,
2013-02-25 09:41:00,34.5,19.6,30.06,North,10,0.0,7.6,54,0.00,,CLR,0.00,VWS V13.01,2013-02-25 14:41:00,
2013-02-25 09:46:00,34.9,19.9,30.06,North,7,4.9,7.6,54,0.00,,CLR,0.00,VWS V13.01,2013-02-25 14:46:00,
2013-02-25 09:51:00,35.1,19.7,30.06,NNE,16,0.0,8.1,53,0.00,,CLR,0.00,VWS V13.01,2013-02-25 14:51:00,
2013-02-25 09:56:00,35.4,19.6,30.06,NNE,28,5.4,8.7,52,0.00,,CLR,0.00,VWS V13.01,2013-02-25 14:56:00,
2013-02-25 10:01:00,35.6,19.3,30.06,NE,39,6.3,7.2,51,0.00,,CLR,0.00,VWS V13.01,2013-02-25 15:01:00,
2013-02-25 10:06:00,35.8,19.9,30.06,SE,127,2.7,7.2,52,0.00,,CLR,0.00,VWS V13.01,2013-02-25 15:06:00,
2013-02-25 10:11:00,36.0,19.6,30.06,North,11,4.9,8.3,51,0.00,,CLR,0.00,VWS V13.01,2013-02-25 15:11:00,
2013-02-25 10:16:00,36.1,19.3,30.06,NNE,32,3.6,8.3,50,0.00,,CLR,0.00,VWS V13.01,2013-02-25 15:16:00,
2013-02-25 10:21:00,36.1,19.3,30.06,NNE,15,0.0,8.3,50,0.00,,CLR,0.00,VWS V13.01,2013-02-25 15:21:00,
2013-02-25 10:26:00,36.3,19.5,30.06,North,357,3.6,10.5,50,0.00,,CLR,0.00,VWS V13.01,2013-02-25 15:26:00,
2013-02-25 10:31:00,36.5,19.2,30.06,NNE,32,5.4,5.8,49,0.00,,CLR,0.00,VWS V13.01,2013-02-25 15:31:00,
2013-02-25 10:36:00,36.9,19.5,30.06,North,353,5.4,8.1,49,0.00,,CLR,0.00,VWS V13.01,2013-02-25 15:36:00,
2013-02-25 10:41:00,37.2,20.3,30.06,NE,37,5.4,8.1,50,0.00,,CLR,0.00,VWS V13.01,2013-02-25 15:41:00,
2013-02-25 10:46:00,37.4,19.5,30.06,NNE,15,0.0,8.1,48,0.00,,FEW030,0.00,VWS V13.01,2013-02-25 15:46:00,
2013-02-25 10:51:00,37.8,20.3,30.06,East,100,0.0,8.1,49,0.00,,FEW030,0.00,VWS V13.01,2013-02-25 15:51:00,
2013-02-25 10:56:00,37.9,20.0,30.06,NNE,19,2.7,8.1,48,0.00,,FEW030,0.00,VWS V13.01,2013-02-25 15:56:00,
2013-02-25 11:01:00,38.1,19.7,30.06,NNE,30,3.6,5.8,47,0.00,,FEW030,0.00,VWS V13.01,2013-02-25 16:01:00,
2013-02-25 11:06:00,38.1,19.7,30.06,North,5,0.0,8.3,47,0.00,,FEW030,0.00,VWS V13.01,2013-02-25 16:06:00,
2013-02-25 11:11:00,38.1,20.2,30.06,ENE,73,3.6,8.3,48,0.00,,FEW030,0.00,VWS V13.01,2013-02-25 16:11:00,
2013-02-25 11:16:00,38.3,20.4,30.06,ENE,72,4.0,8.3,48,0.00,,FEW030,0.00,VWS V13.01,2013-02-25 16:16:00,
2013-02-25 11:21:00,38.7,20.2,30.06,NNE,27,2.7,10.1,47,0.00,,FEW030,0.00,VWS V13.01,2013-02-25 16:21:00,
2013-02-25 11:26:00,38.7,19.2,30.06,ENE,71,4.0,10.1,45,0.00,,FEW030,0.00,VWS V13.01,2013-02-25 16:26:00,
2013-02-25 11:31:00,38.7,19.2,30.06,NE,38,3.6,6.7,45,0.00,,FEW030,0.00,VWS V13.01,2013-02-25 16:31:00,
2013-02-25 11:36:00,38.5,19.5,30.06,SE,136,0.0,7.6,46,0.00,,FEW030,0.00,VWS V13.01,2013-02-25 16:36:00,
2013-02-25 11:41:00,38.7,20.2,30.06,NNE,27,4.0,7.6,47,0.00,,FEW030,0.00,VWS V13.01,2013-02-25 16:41:00,
2013-02-25 11:46:00,38.8,19.3,30.06,NNE,28,5.8,9.6,45,0.00,,SCT040,0.00,VWS V13.01,2013-02-25 16:46:00,
2013-02-25 11:51:00,38.8,19.3,30.06,ENE,63,0.0,9.6,45,0.00,,SCT040,0.00,VWS V13.01,2013-02-25 16:51:00,
2013-02-25 11:56:00,39.0,20.0,30.09,East,93,0.0,9.6,46,0.00,,SCT040,0.00,VWS V13.01,2013-02-25 16:56:00,
2013-02-25 12:01:00,39.0,20.0,30.09,NNE,29,5.4,5.8,46,0.00,,SCT040,0.00,VWS V13.01,2013-02-25 17:01:00,
2013-02-25 12:06:00,38.8,20.4,30.09,North,3,3.6,5.8,47,0.00,,SCT040,0.00,VWS V13.01,2013-02-25 17:06:00,
2013-02-25 12:11:00,38.7,20.2,30.09,ESE,110,3.1,7.2,47,0.00,,SCT040,0.00,VWS V13.01,2013-02-25 17:11:00,
2013-02-25 12:16:00,38.7,21.2,30.09,NE,47,7.6,7.6,49,0.00,,SCT040,0.00,VWS V13.01,2013-02-25 17:16:00,
2013-02-25 12:21:00,38.7,20.7,30.09,NNE,32,0.0,7.6,48,0.00,,SCT040,0.00,VWS V13.01,2013-02-25 17:21:00,
2013-02-25 12:26:00,38.5,21.0,30.09,North,7,0.0,7.6,49,0.00,,SCT040,0.00,VWS V13.01,2013-02-25 17:26:00,
2013-02-25 12:31:00,38.5,21.0,30.09,NE,54,0.0,0.0,49,0.00,,SCT040,0.00,VWS V13.01,2013-02-25 17:31:00,
2013-02-25 12:36:00,38.5,21.5,30.09,SE,126,5.4,5.4,50,0.00,,SCT040,0.00,VWS V13.01,2013-02-25 17:36:00,
2013-02-25 12:41:00,38.5,21.5,30.09,SE,139,3.1,5.4,50,0.00,,SCT040,0.00,VWS V13.01,2013-02-25 17:41:00,
2013-02-25 12:46:00,38.3,21.3,30.09,ESE,111,0.0,5.4,50,0.00,,SCT042,0.00,VWS V13.01,2013-02-25 17:46:00,
2013-02-25 12:51:00,38.3,21.3,30.09,East,90,0.0,5.4,50,0.00,,SCT042,0.00,VWS V13.01,2013-02-25 17:51:00,
2013-02-25 12:56:00,38.1,21.1,30.09,SE,132,0.0,5.4,50,0.00,,SCT042,0.00,VWS V13.01,2013-02-25 17:56:00,
2013-02-25 13:01:00,38.1,21.1,30.09,NE,38,4.9,4.9,50,0.00,,SCT042,0.00,VWS V13.01,2013-02-25 18:01:00,
2013-02-25 13:06:00,37.9,21.0,30.09,NE,42,0.0,5.8,50,0.00,,SCT042,0.00,VWS V13.01,2013-02-25 18:06:00,
2013-02-25 13:11:00,37.9,21.0,30.09,East,87,0.0,5.8,50,0.00,,SCT042,0.00,VWS V13.01,2013-02-25 18:11:00,
2013-02-25 13:16:00,37.9,21.4,30.09,ESE,116,0.0,5.8,51,0.00,,SCT042,0.00,VWS V13.01,2013-02-25 18:16:00,
2013-02-25 13:21:00,37.9,21.4,30.09,ESE,115,0.0,5.8,51,0.00,,SCT042,0.00,VWS V13.01,2013-02-25 18:21:00,
2013-02-25 13:26:00,37.9,21.4,30.09,ESE,116,0.0,5.8,51,0.00,,SCT042,0.00,VWS V13.01,2013-02-25 18:26:00,
2013-02-25 13:31:00,37.9,21.4,30.09,East,87,0.0,2.7,51,0.00,,SCT042,0.00,VWS V13.01,2013-02-25 18:31:00,
2013-02-25 13:36:00,37.9,21.4,30.09,East,87,0.0,2.7,51,0.00,,SCT042,0.00,VWS V13.01,2013-02-25 18:36:00,
2013-02-25 13:41:00,37.9,21.4,30.09,SE,131,0.0,4.0,51,0.00,,SCT042,0.00,VWS V13.01,2013-02-25 18:41:00,
2013-02-25 13:46:00,37.9,21.4,30.09,East,91,0.0,4.0,51,0.00,,BKN055,0.00,VWS V13.01,2013-02-25 18:46:00,
2013-02-25 13:51:00,37.9,21.4,30.09,East,95,0.0,4.0,51,0.00,,BKN055,0.00,VWS V13.01,2013-02-25 18:51:00,
2013-02-25 13:56:00,37.9,21.4,30.09,East,94,0.0,4.0,51,0.00,,BKN055,0.00,VWS V13.01,2013-02-25 18:56:00,
2013-02-25 14:01:00,37.9,21.4,30.09,NE,42,0.0,3.1,51,0.00,,BKN055,0.00,VWS V13.01,2013-02-25 19:01:00,
2013-02-25 14:06:00,37.9,21.9,30.09,East,86,0.0,3.6,52,0.00,,BKN055,0.00,VWS V13.01,2013-02-25 19:06:00,
2013-02-25 14:11:00,37.9,21.4,30.09,ESE,107,0.0,3.6,51,0.00,,BKN055,0.00,VWS V13.01,2013-02-25 19:11:00,
2013-02-25 14:16:00,37.9,21.9,30.09,ESE,106,0.0,3.6,52,0.00,,BKN055,0.00,VWS V13.01,2013-02-25 19:16:00,
2013-02-25 14:21:00,37.8,21.7,30.09,ESE,106,0.0,3.6,52,0.00,,BKN055,0.00,VWS V13.01,2013-02-25 19:21:00,
2013-02-25 14:26:00,37.8,21.7,30.09,ESE,103,0.0,3.6,52,0.00,,BKN055,0.00,VWS V13.01,2013-02-25 19:26:00,
2013-02-25 14:31:00,37.8,21.7,30.09,ESE,103,0.0,0.0,52,0.00,,BKN055,0.00,VWS V13.01,2013-02-25 19:31:00,
2013-02-25 14:36:00,37.8,21.7,30.09,ESE,115,0.0,2.7,52,0.00,,BKN055,0.00,VWS V13.01,2013-02-25 19:36:00,
2013-02-25 14:41:00,37.6,21.6,30.12,ESE,115,0.0,2.7,52,0.00,,BKN055,0.00,VWS V13.01,2013-02-25 19:41:00,
2013-02-25 14:46:00,37.6,21.6,30.12,East,87,0.0,2.7,52,0.00,,BKN050,0.00,VWS V13.01,2013-02-25 19:46:00,
2013-02-25 14:51:00,37.6,21.6,30.12,East,87,0.0,2.7,52,0.00,,BKN050,0.00,VWS V13.01,2013-02-25 19:51:00,
2013-02-25 14:56:00,37.6,21.6,30.12,ENE,62,3.6,3.6,52,0.00,,BKN050,0.00,VWS V13.01,2013-02-25 19:56:00,
2013-02-25 15:01:00,37.6,21.6,30.12,NE,53,0.0,0.0,52,0.00,,BKN050,0.00,VWS V13.01,2013-02-25 20:01:00,
2013-02-25 15:06:00,37.6,21.6,30.12,East,86,0.0,3.6,52,0.00,,BKN050,0.00,VWS V13.01,2013-02-25 20:06:00,
2013-02-25 15:11:00,37.6,21.6,30.12,NE,40,0.0,5.8,52,0.00,,BKN050,0.00,VWS V13.01,2013-02-25 20:11:00,
2013-02-25 15:16:00,37.4,21.4,30.12,ENE,60,0.0,5.8,52,0.00,,BKN050,0.00,VWS V13.01,2013-02-25 20:16:00,
2013-02-25 15:21:00,37.2,21.2,30.12,East,80,0.0,5.8,52,0.00,,BKN050,0.00,VWS V13.01,2013-02-25 20:21:00,
2013-02-25 15:26:00,37.2,21.7,30.12,East,81,0.0,5.8,53,0.00,,BKN050,0.00,VWS V13.01,2013-02-25 20:26:00,
2013-02-25 15:31:00,37.0,21.5,30.12,East,82,0.0,0.0,53,0.00,,BKN050,0.00,VWS V13.01,2013-02-25 20:31:00,
2013-02-25 15:36:00,37.0,21.5,30.12,East,79,0.0,0.0,53,0.00,,BKN050,0.00,VWS V13.01,2013-02-25 20:36:00,
2013-02-25 15:41:00,37.0,21.5,30.12,ENE,78,0.0,0.0,53,0.00,,BKN050,0.00,VWS V13.01,2013-02-25 20:41:00,
2013-02-25 15:46:00,37.0,21.5,30.12,East,82,0.0,0.0,53,0.00,,BKN045,0.00,VWS V13.01,2013-02-25 20:46:00,
2013-02-25 15:51:00,37.0,21.5,30.12,NE,38,0.0,3.6,53,0.00,,BKN045,0.00,VWS V13.01,2013-02-25 20:51:00,
2013-02-25 15:56:00,37.0,21.5,30.12,NE,38,0.0,3.6,53,0.00,,BKN045,0.00,VWS V13.01,2013-02-25 20:56:00,
2013-02-25 16:01:00,36.9,20.9,30.12,NE,37,2.2,3.1,52,0.00,,BKN045,0.00,VWS V13.01,2013-02-25 21:01:00,
2013-02-25 16:06:00,36.9,20.9,30.12,NE,37,0.0,3.1,52,0.00,,BKN045,0.00,VWS V13.01,2013-02-25 21:06:00,
2013-02-25 16:11:00,37.0,21.5,30.12,NE,37,0.0,3.1,53,0.00,,BKN045,0.00,VWS V13.01,2013-02-25 21:11:00,
2013-02-25 16:16:00,37.0,21.5,30.12,NE,37,0.0,3.1,53,0.00,,BKN045,0.00,VWS V13.01,2013-02-25 21:16:00,
2013-02-25 16:21:00,37.0,21.5,30.12,NE,37,0.0,3.1,53,0.00,,BKN045,0.00,VWS V13.01,2013-02-25 21:21:00,
2013-02-25 16:26:00,36.9,21.3,30.12,NE,37,4.0,4.0,53,0.00,,BKN045,0.00,VWS V13.01,2013-02-25 21:26:00,
2013-02-25 16:31:00,36.9,21.3,30.12,NNE,33,0.0,3.1,53,0.00,,BKN045,0.00,VWS V13.01,2013-02-25 21:31:00,
2013-02-25 16:36:00,36.7,21.2,30.12,NNE,32,0.0,3.1,53,0.00,,BKN045,0.00,VWS V13.01,2013-02-25 21:36:00,
2013-02-25 16:41:00,36.7,21.2,30.15,NNE,32,0.0,3.1,53,0.00,,BKN045,0.00,VWS V13.01,2013-02-25 21:41:00,
2013-02-25 16:46:00,36.7,21.2,30.15,NW,324,3.6,4.0,53,0.00,,OVC045,0.00,VWS V13.01,2013-02-25 21:46:00,
2013-02-25 16:51:00,36.5,20.6,30.15,NNE,13,0.0,8.1,52,0.00,,OVC045,0.00,VWS V13.01,2013-02-25 21:51:00,
2013-02-25 16:56:00,36.3,19.9,30.15,North,7,2.7,8.1,51,0.00,,OVC045,0.00,VWS V13.01,2013-02-25 21:56:00,
2013-02-25 17:01:00,36.3,19.9,30.15,North,7,0.0,0.0,51,0.00,,OVC045,0.00,VWS V13.01,2013-02-25 22:01:00,
2013-02-25 17:06:00,36.3,19.9,30.15,North,5,4.0,4.0,51,0.00,,OVC045,0.00,VWS V13.01,2013-02-25 22:06:00,
2013-02-25 17:11:00,36.1,20.2,30.15,NW,308,0.0,4.0,52,0.00,,OVC045,0.00,VWS V13.01,2013-02-25 22:11:00,
2013-02-25 17:16:00,36.1,19.8,30.15,NW,314,0.0,4.0,51,0.00,,OVC045,0.00,VWS V13.01,2013-02-25 22:16:00,
2013-02-25 17:21:00,36.0,19.6,30.15,NNE,21,0.0,4.0,51,0.00,,OVC045,0.00,VWS V13.01,2013-02-25 22:21:00,
2013-02-25 17:26:00,35.8,19.0,30.15,NW,324,0.0,7.2,50,0.00,,OVC045,0.00,VWS V13.01,2013-02-25 22:26:00,
2013-02-25 17:31:00,35.8,19.4,30.15,WNW,293,2.7,4.0,51,0.00,,OVC045,0.00,VWS V13.01,2013-02-25 22:31:00,
2013-02-25 17:36:00,35.6,19.3,30.15,NNW,334,0.0,7.2,51,0.00,,OVC045,0.00,VWS V13.01,2013-02-25 22:36:00,
2013-02-25 17:41:00,35.6,19.3,30.15,NNW,334,0.0,7.2,51,0.00,,OVC045,0.00,VWS V13.01,2013-02-25 22:41:00,
2013-02-25 17:46:00,35.4,19.6,30.15,West,280,8.3,8.3,52,0.00,,OVC045,0.00,VWS V13.01,2013-02-25 22:46:00,
2013-02-25 17:51:00,35.2,19.8,30.15,West,279,3.6,8.3,53,0.00,,OVC045,0.00,VWS V13.01,2013-02-25 22:51:00,
2013-02-25 17:56:00,35.1,19.7,30.15,West,270,2.2,8.3,53,0.00,,OVC045,0.00,VWS V13.01,2013-02-25 22:56:00,
2013-02-25 18:01:00,35.1,19.7,30.15,West,281,3.1,3.1,53,0.00,,OVC045,0.00,VWS V13.01,2013-02-25 23:01:00,
2013-02-25 18:06:00,34.9,19.9,30.15,WNW,282,2.7,5.4,54,0.00,,OVC045,0.00,VWS V13.01,2013-02-25 23:06:00,
2013-02-25 18:11:00,34.9,19.9,30.15,WNW,297,4.5,5.4,54,0.00,,OVC045,0.00,VWS V13.01,2013-02-25 23:11:00,
2013-02-25 18:16:00,34.9,19.9,30.15,NW,313,0.0,5.4,54,0.00,,OVC045,0.00,VWS V13.01,2013-02-25 23:16:00,
2013-02-25 18:21:00,34.9,19.9,30.15,NW,313,0.0,5.4,54,0.00,,OVC045,0.00,VWS V13.01,2013-02-25 23:21:00,
2013-02-25 18:26:00,34.9,19.9,30.18,WNW,284,2.7,5.4,54,0.00,,OVC045,0.00,VWS V13.01,2013-02-25 23:26:00,
2013-02-25 18:31:00,34.9,19.9,30.18,NNW,328,0.0,0.0,54,0.00,,OVC045,0.00,VWS V13.01,2013-02-25 23:31:00,
2013-02-25 18:36:00,34.9,19.9,30.18,NNW,328,0.0,0.0,54,0.00,,OVC045,0.00,VWS V13.01,2013-02-25 23:36:00,
2013-02-25 18:41:00,34.9,19.9,30.18,NNW,328,0.0,0.0,54,0.00,,OVC045,0.00,VWS V13.01,2013-02-25 23:41:00,
2013-02-25 18:46:00,34.5,19.6,30.18,NNW,328,0.0,0.0,54,0.00,,BKN041,0.00,VWS V13.01,2013-02-25 23:46:00,
2013-02-25 18:51:00,34.3,19.9,30.18,NNW,328,0.0,0.0,55,0.00,,BKN041,0.00,VWS V13.01,2013-02-25 23:51:00,
2013-02-25 18:56:00,34.0,20.0,30.18,NNW,328,0.0,0.0,56,0.00,,BKN041,0.00,VWS V13.01,2013-02-25 23:56:00,
2013-02-25 19:01:00,33.6,20.4,30.18,NNW,328,0.0,0.0,58,0.00,,BKN041,0.00,VWS V13.01,2013-02-26 00:01:00,
2013-02-25 19:06:00,33.3,20.5,30.18,NNW,328,0.0,0.0,59,0.00,,BKN041,0.00,VWS V13.01,2013-02-26 00:06:00,
2013-02-25 19:11:00,32.9,20.2,30.18,NNW,328,0.0,0.0,59,0.00,,BKN041,0.00,VWS V13.01,2013-02-26 00:11:00,
2013-02-25 19:16:00,32.7,20.8,30.18,NNW,328,0.0,0.0,61,0.00,,OVC043,0.00,VWS V13.01,2013-02-26 00:16:00,
2013-02-25 19:21:00,32.5,21.0,30.18,NNW,328,0.0,0.0,62,0.00,,OVC043,0.00,VWS V13.01,2013-02-26 00:21:00,
2013-02-25 19:26:00,32.4,20.8,30.18,NNW,328,0.0,0.0,62,0.00,,OVC043,0.00,VWS V13.01,2013-02-26 00:26:00,
2013-02-25 19:31:00,32.2,21.0,30.18,NNW,328,0.0,0.0,63,0.00,,OVC043,0.00,VWS V13.01,2013-02-26 00:31:00,
2013-02-25 19:36:00,32.2,21.4,30.18,NNW,328,0.0,0.0,64,0.00,,OVC043,0.00,VWS V13.01,2013-02-26 00:36:00,
2013-02-25 19:41:00,32.2,21.8,30.18,NNW,328,0.0,0.0,65,0.00,,OVC043,0.00,VWS V13.01,2013-02-26 00:41:00,
2013-02-25 19:46:00,32.0,21.9,30.18,NNW,328,0.0,0.0,66,0.00,,OVC043,0.00,VWS V13.01,2013-02-26 00:46:00,
2013-02-25 19:51:00,32.0,22.3,30.18,NNW,328,0.0,0.0,67,0.00,,OVC043,0.00,VWS V13.01,2013-02-26 00:51:00,
2013-02-25 19:56:00,32.0,22.6,30.18,NNW,328,0.0,0.0,68,0.00,,OVC043,0.00,VWS V13.01,2013-02-26 00:56:00,
2013-02-25 20:01:00,32.0,22.6,30.18,NNW,328,0.0,0.0,68,0.00,,OVC043,0.00,VWS V13.01,2013-02-26 01:01:00,
2013-02-25 20:06:00,32.0,23.0,30.18,NNW,328,0.0,0.0,69,0.00,,OVC043,0.00,VWS V13.01,2013-02-26 01:06:00,
2013-02-25 20:11:00,31.8,22.8,30.18,NNW,328,0.0,0.0,69,0.00,,OVC043,0.00,VWS V13.01,2013-02-26 01:11:00,
2013-02-25 20:16:00,32.0,23.3,30.18,NNW,328,0.0,0.0,70,0.00,,OVC043,0.00,VWS V13.01,2013-02-26 01:16:00,
2013-02-25 20:21:00,32.0,23.3,30.18,NNW,328,0.0,0.0,70,0.00,,OVC043,0.00,VWS V13.01,2013-02-26 01:21:00,
2013-02-25 20:26:00,32.0,23.7,30.18,NNW,328,0.0,0.0,71,0.00,,OVC043,0.00,VWS V13.01,2013-02-26 01:26:00,
2013-02-25 20:31:00,32.0,23.7,30.18,NNW,328,0.0,0.0,71,0.00,,OVC043,0.00,VWS V13.01,2013-02-26 01:31:00,
2013-02-25 20:36:00,32.0,24.0,30.18,NNW,328,0.0,0.0,72,0.00,,OVC043,0.00,VWS V13.01,2013-02-26 01:36:00,
2013-02-25 20:41:00,32.0,24.0,30.18,NNW,328,0.0,0.0,72,0.00,,OVC043,0.00,VWS V13.01,2013-02-26 01:41:00,
2013-02-25 20:46:00,32.0,24.3,30.18,NNW,328,0.0,0.0,73,0.00,,BKN045,0.00,VWS V13.01,2013-02-26 01:46:00,
2013-02-25 20:51:00,31.8,24.2,30.18,NNW,328,0.0,0.0,73,0.00,,BKN045,0.00,VWS V13.01,2013-02-26 01:51:00,
2013-02-25 20:56:00,31.8,24.2,30.18,NNW,328,0.0,0.0,73,0.00,,BKN045,0.00,VWS V13.01,2013-02-26 01:56:00,
2013-02-25 21:01:00,31.8,24.2,30.18,NNW,328,0.0,0.0,73,0.00,,BKN045,0.00,VWS V13.01,2013-02-26 02:01:00,
2013-02-25 21:06:00,31.6,24.0,30.18,NNW,328,0.0,0.0,73,0.00,,BKN045,0.00,VWS V13.01,2013-02-26 02:06:00,
2013-02-25 21:11:00,31.5,23.8,30.18,NNW,328,0.0,0.0,73,0.00,,BKN045,0.00,VWS V13.01,2013-02-26 02:11:00,
2013-02-25 21:16:00,31.3,23.6,30.18,NNW,328,0.0,0.0,73,0.00,,BKN045,0.00,VWS V13.01,2013-02-26 02:16:00,
2013-02-25 21:21:00,31.1,23.8,30.18,NNW,328,0.0,0.0,74,0.00,,BKN045,0.00,VWS V13.01,2013-02-26 02:21:00,
2013-02-25 21:26:00,31.1,23.8,30.18,NNW,328,0.0,0.0,74,0.00,,BKN045,0.00,VWS V13.01,2013-02-26 02:26:00,
2013-02-25 21:31:00,31.1,23.8,30.18,NNW,328,0.0,0.0,74,0.00,,BKN045,0.00,VWS V13.01,2013-02-26 02:31:00,
2013-02-25 21:36:00,30.9,23.6,30.18,NNW,328,0.0,0.0,74,0.00,,BKN045,0.00,VWS V13.01,2013-02-26 02:36:00,
2013-02-25 21:41:00,30.9,23.9,30.18,NNW,328,0.0,0.0,75,0.00,,BKN045,0.00,VWS V13.01,2013-02-26 02:41:00,
2013-02-25 21:46:00,30.7,23.8,30.18,NNW,328,0.0,0.0,75,0.00,,BKN046,0.00,VWS V13.01,2013-02-26 02:46:00,
2013-02-25 21:51:00,30.7,23.8,30.18,NNW,328,0.0,0.0,75,0.00,,BKN046,0.00,VWS V13.01,2013-02-26 02:51:00,
2013-02-25 21:56:00,30.6,23.6,30.18,NNW,328,0.0,0.0,75,0.00,,BKN046,0.00,VWS V13.01,2013-02-26 02:56:00,
2013-02-25 22:01:00,30.4,23.4,30.18,NNW,328,0.0,0.0,75,0.00,,BKN046,0.00,VWS V13.01,2013-02-26 03:01:00,
2013-02-25 22:06:00,30.2,23.6,30.18,NNW,328,0.0,0.0,76,0.00,,BKN046,0.00,VWS V13.01,2013-02-26 03:06:00,
2013-02-25 22:11:00,29.8,23.2,30.18,NNW,328,0.0,0.0,76,0.00,,BKN046,0.00,VWS V13.01,2013-02-26 03:11:00,
2013-02-25 22:16:00,29.7,23.0,30.18,NNW,328,0.0,0.0,76,0.00,,BKN046,0.00,VWS V13.01,2013-02-26 03:16:00,
2013-02-25 22:21:00,29.5,22.9,30.18,NNW,328,0.0,0.0,76,0.00,,BKN046,0.00,VWS V13.01,2013-02-26 03:21:00,
2013-02-25 22:26:00,29.5,22.9,30.21,NNW,328,0.0,0.0,76,0.00,,BKN046,0.00,VWS V13.01,2013-02-26 03:26:00,
2013-02-25 22:31:00,29.1,22.5,30.21,NNW,328,0.0,0.0,76,0.00,,BKN046,0.00,VWS V13.01,2013-02-26 03:31:00,
2013-02-25 22:36:00,28.9,22.3,30.21,NNW,328,0.0,0.0,76,0.00,,OVC047,0.00,VWS V13.01,2013-02-26 03:36:00,
2013-02-25 22:41:00,28.8,22.2,30.21,NNW,328,0.0,0.0,76,0.00,,OVC047,0.00,VWS V13.01,2013-02-26 03:41:00,
2013-02-25 22:46:00,28.8,22.2,30.21,NNW,328,0.0,0.0,76,0.00,,OVC047,0.00,VWS V13.01,2013-02-26 03:46:00,
2013-02-25 22:51:00,28.6,22.0,30.21,NNW,328,0.0,0.0,76,0.00,,OVC047,0.00,VWS V13.01,2013-02-26 03:51:00,
2013-02-25 22:56:00,28.4,22.1,30.21,NNW,328,0.0,0.0,77,0.00,,OVC047,0.00,VWS V13.01,2013-02-26 03:56:00,
2013-02-25 23:01:00,28.4,22.1,30.21,NNW,328,0.0,0.0,77,0.00,,OVC047,0.00,VWS V13.01,2013-02-26 04:01:00,
2013-02-25 23:06:00,28.2,22.0,30.21,NNW,328,0.0,0.0,77,0.00,,OVC047,0.00,VWS V13.01,2013-02-26 04:06:00,
2013-02-25 23:11:00,28.0,21.8,30.21,NNW,328,0.0,0.0,77,0.00,,OVC047,0.00,VWS V13.01,2013-02-26 04:11:00,
2013-02-25 23:16:00,28.0,21.8,30.21,NNW,328,0.0,0.0,77,0.00,,OVC047,0.00,VWS V13.01,2013-02-26 04:16:00,
2013-02-25 23:21:00,27.9,21.6,30.21,NNW,328,0.0,0.0,77,0.00,,OVC047,0.00,VWS V13.01,2013-02-26 04:21:00,
2013-02-25 23:26:00,27.9,21.6,30.21,NNW,328,0.0,0.0,77,0.00,,OVC047,0.00,VWS V13.01,2013-02-26 04:26:00,
2013-02-25 23:31:00,27.7,21.4,30.21,NNW,328,0.0,0.0,77,0.00,,OVC047,0.00,VWS V13.01,2013-02-26 04:31:00,
2013-02-25 23:36:00,27.7,21.4,30.21,NNW,328,0.0,0.0,77,0.00,,OVC047,0.00,VWS V13.01,2013-02-26 04:36:00,
2013-02-25 23:41:00,27.5,21.2,30.21,NNW,328,0.0,0.0,77,0.00,,OVC047,0.00,VWS V13.01,2013-02-26 04:41:00,
2013-02-25 23:46:00,27.5,21.2,30.21,NNW,328,0.0,0.0,77,0.00,,OVC047,0.00,VWS V13.01,2013-02-26 04:46:00,
2013-02-25 23:51:00,27.5,21.5,30.21,NNW,328,0.0,0.0,78,0.00,,OVC047,0.00,VWS V13.01,2013-02-26 04:51:00,
2013-02-25 23:56:00,27.3,21.4,30.21,NNW,328,0.0,0.0,78,0.00,,OVC047,0.00,VWS V13.01,2013-02-26 04:56:00,